"Pseudo-MPEC" for A10Y90M

Created 2023 Dec 2 2:22:02 UT using Find_Orb

Click here for an explanation of pseudo-MPECs

 
 Astrometry: 
     A10Y90M* C2023 11 15$A6tyX*IW\X3C%6V$B-AstrometryLfQ*EOI^5Q7predacted;UXW68
     A10Y90M  C2023 11 15,)Xh[uJnbGsx#Rt0$:;b_jclickfxY=5)rmiU%here-C;\H/Do\CW68
     A10Y90M  C2023 11 15Mhq7l2S/Kwu#1l8nd`^s?k=ZN?CrhZo;HASofor-`$X7S\HEN=chW68
     A10Y90M  C2023 11 15U\.FSBNr@!aJVHE/=RIu1aNGcMOZ6explanation5s6dyB?:BDpEW68

Station data:
(W68) ATLAS Chile, Rio Hurtado  (S30.471010 W70.764980)  Chile.  Observers L.
   Denneau, R. Siverd, J. Tonry, H. Weiland. Measurers L. Denneau, N.
   Erasmus, A. Fitzsimmons, A. Lawrence, J. Robinson, R. Siverd, J. Tonry, H.
   Weiland. 0.5-m reflector + CCD.

Orbital elements:  A10Y90M
   Perihelion 2024 Feb 18.09234 +/- 26.7 TT =  2:12:58 (JD 2460358.59234)
Epoch 2023 Nov 15.0 TT = JDT 2460263.5   Earth MOID: 0.0044   Ve: 0.0802
M 237.68336819 +/- 41               (J2000 ecliptic)             AutoNEOCP
n   1.28629323 +/- 0.282            Peri.  324.62404 +/- 40
a   0.83735456 +/- 0.123            Node   231.37753 +/- 0.31
e   0.2671520 +/- 0.0823            Incl.   31.70417 +/- 15
P   0.77/279.87d           H 24.09  G  0.15   U 11.9  SR
q 0.61365356 +/- 0.12    Q 1.06105556 +/- 0.346
From 4 observations 2023 Nov. 15 (44.7 min); mean residual 1".51
Residuals in arcseconds: 
231115 W68  .07-  3.0+    231115 W68  .00   2.9-    
231115 W68  .09+  .77-    231115 W68  .02-  .60+    

Ephemerides (geocentric):
Date (UTC) HH   RA             Dec           delta  r     elong  mag " sig PA
---- --------  ------------   ------------  ------ ------ -----  --- --------
2023 12 02 02  21 28 06.170   -78 31 43.52  .16701 .92937  65.5 23.9 424'  69
2023 12 02 03  21 27 57.010   -78 31 27.89  .16739 .92920  65.5 23.9 424'  69
2023 12 02 04  21 27 47.861   -78 31 12.29  .16778 .92902  65.5 23.9 424'  69
2023 12 02 05  21 27 38.722   -78 30 56.72  .16816 .92885  65.5 23.9 425'  69
2023 12 02 06  21 27 29.594   -78 30 41.18  .16855 .92868  65.4 23.9 425'  69
2023 12 02 07  21 27 20.475   -78 30 25.67  .16893 .92851  65.4 24.0 425'  69
2023 12 02 08  21 27 11.367   -78 30 10.18  .16931 .92833  65.4 24.0 425'  69
2023 12 02 09  21 27 02.269   -78 29 54.73  .16970 .92816  65.4 24.0 426'  69
2023 12 02 10  21 26 53.180   -78 29 39.30  .17008 .92799  65.3 24.0 426'  69
2023 12 02 11  21 26 44.101   -78 29 23.89  .17047 .92782  65.3 24.0 426'  69
2023 12 02 12  21 26 35.032   -78 29 08.52  .17085 .92764  65.3 24.0 426'  69
2023 12 02 13  21 26 25.971   -78 28 53.16  .17124 .92747  65.3 24.0 427'  69
2023 12 02 14  21 26 16.920   -78 28 37.84  .17162 .92730  65.3 24.0 427'  69
2023 12 02 15  21 26 07.878   -78 28 22.53  .17201 .92712  65.2 24.0 427'  69
2023 12 02 16  21 25 58.844   -78 28 07.26  .17239 .92695  65.2 24.0 427'  69
2023 12 02 17  21 25 49.819   -78 27 52.00  .17277 .92678  65.2 24.0 428'  69
2023 12 02 18  21 25 40.803   -78 27 36.77  .17316 .92660  65.2 24.0 428'  69
2023 12 02 19  21 25 31.795   -78 27 21.57  .17354 .92643  65.1 24.0 428'  69
2023 12 02 20  21 25 22.795   -78 27 06.38  .17393 .92626  65.1 24.0 428'  69
2023 12 02 21  21 25 13.803   -78 26 51.22  .17431 .92608  65.1 24.0 429'  69
2023 12 02 22  21 25 04.819   -78 26 36.08  .17469 .92591  65.1 24.0 429'  69
2023 12 02 23  21 24 55.842   -78 26 20.96  .17508 .92574  65.0 24.0 429'  69
2023 12 03 00  21 24 46.874   -78 26 05.87  .17546 .92556  65.0 24.0 429'  69
2023 12 03 01  21 24 37.913   -78 25 50.79  .17584 .92539  65.0 24.0 430'  69
2023 12 03 02  21 24 28.959   -78 25 35.73  .17623 .92521  65.0 24.0 430'  69
2023 12 03 03  21 24 20.012   -78 25 20.70  .17661 .92504  65.0 24.0 430'  69
2023 12 03 04  21 24 11.073   -78 25 05.68  .17699 .92487  64.9 24.0 430'  69
2023 12 03 05  21 24 02.140   -78 24 50.68  .17738 .92469  64.9 24.1 431'  69
2023 12 03 06  21 23 53.214   -78 24 35.70  .17776 .92452  64.9 24.1 431'  69
2023 12 03 07  21 23 44.295   -78 24 20.74  .17814 .92434  64.9 24.1 431'  69
2023 12 03 08  21 23 35.383   -78 24 05.80  .17853 .92417  64.8 24.1 431'  69
2023 12 03 09  21 23 26.477   -78 23 50.88  .17891 .92399  64.8 24.1 432'  69
2023 12 03 10  21 23 17.577   -78 23 35.97  .17929 .92382  64.8 24.1 432'  69
2023 12 03 11  21 23 08.683   -78 23 21.08  .17968 .92364  64.8 24.1 432'  69
2023 12 03 12  21 22 59.795   -78 23 06.20  .18006 .92347  64.8 24.1 432'  69
2023 12 03 13  21 22 50.914   -78 22 51.34  .18044 .92329  64.7 24.1 433'  69
2023 12 03 14  21 22 42.038   -78 22 36.50  .18082 .92312  64.7 24.1 433'  69
2023 12 03 15  21 22 33.168   -78 22 21.67  .18121 .92294  64.7 24.1 433'  69
2023 12 03 16  21 22 24.303   -78 22 06.86  .18159 .92276  64.7 24.1 433'  69
2023 12 03 17  21 22 15.444   -78 21 52.06  .18197 .92259  64.6 24.1 434'  69
2023 12 03 18  21 22 06.590   -78 21 37.28  .18235 .92241  64.6 24.1 434'  69
2023 12 03 19  21 21 57.742   -78 21 22.51  .18274 .92224  64.6 24.1 434'  69
2023 12 03 20  21 21 48.898   -78 21 07.75  .18312 .92206  64.6 24.1 434'  69
2023 12 03 21  21 21 40.060   -78 20 53.01  .18350 .92189  64.5 24.1 435'  69
2023 12 03 22  21 21 31.226   -78 20 38.28  .18388 .92171  64.5 24.1 435'  69
2023 12 03 23  21 21 22.398   -78 20 23.56  .18427 .92153  64.5 24.1 435'  69
2023 12 04 00  21 21 13.574   -78 20 08.86  .18465 .92136  64.5 24.1 435'  69
2023 12 04 01  21 21 04.754   -78 19 54.16  .18503 .92118  64.5 24.1 436'  69